| time (UTC) | temp F | wind direction | speed knots | gust knots | rain 1hr in | rain 24hr in | rain mn in | humidity % | barometer mb |
| 20260508224341 | 91 | 270 | 2.6 | 3.5 | 0.00 | 0.00 | 0.00 | 11 | 1006.3 |
| 20260508223839 | 89 | 345 | 3.5 | 11.3 | 0.00 | 0.00 | 0.00 | 13 | 1006.2 |
| 20260508223336 | 91 | 336 | 0.0 | 4.3 | 0.00 | 0.00 | 0.00 | 11 | 1006.2 |
| 20260508222833 | 90 | 325 | 2.6 | 7.0 | 0.00 | 0.00 | 0.00 | 11 | 1006.3 |
| 20260508222330 | 91 | 340 | 0.9 | 7.0 | 0.00 | 0.00 | 0.00 | 12 | 1006.4 |
| 20260508221827 | 91 | 32 | 1.7 | 2.6 | 0.00 | 0.00 | 0.00 | 12 | 1006.4 |
| 20260508221322 | 89 | 165 | 0.9 | 6.1 | 0.00 | 0.00 | 0.00 | 13 | 1006.3 |
| 20260508220819 | 91 | 0 | 0.0 | 3.5 | 0.00 | 0.00 | 0.00 | 13 | 1006.3 |
| 20260508220315 | 91 | 246 | 0.0 | 3.5 | 0.00 | 0.00 | 0.00 | 13 | 1006.4 |
| 20260508215812 | 90 | 277 | 0.0 | 4.3 | 0.00 | 0.00 | 0.00 | 13 | 1006.6 |
| 20260508215309 | 91 | 90 | 0.9 | 1.7 | 0.00 | 0.00 | 0.00 | 13 | 1006.4 |
| 20260508214806 | 90 | 229 | 1.7 | 4.3 | 0.00 | 0.00 | 0.00 | 14 | 1006.6 |
| 20260508214303 | 90 | 234 | 2.6 | 5.2 | 0.00 | 0.00 | 0.00 | 14 | 1006.4 |
| 20260508213759 | 90 | 270 | 2.6 | 2.6 | 0.00 | 0.00 | 0.00 | 13 | 1006.7 |
| 20260508213256 | 89 | 161 | 2.6 | 4.3 | 0.00 | 0.00 | 0.00 | 14 | 1006.9 |
| 20260508212753 | 88 | 203 | 1.7 | 3.5 | 0.00 | 0.00 | 0.00 | 14 | 1006.9 |
| 20260508212249 | 88 | 171 | 1.7 | 4.3 | 0.00 | 0.00 | 0.00 | 15 | 1006.9 |
| 20260508211745 | 89 | 112 | 2.6 | 3.5 | 0.00 | 0.00 | 0.00 | 15 | 1006.9 |
| 20260508211240 | 88 | 169 | 3.5 | 5.2 | 0.00 | 0.00 | 0.00 | 14 | 1006.7 |
| 20260508210738 | 88 | 155 | 2.6 | 3.5 | 0.00 | 0.00 | 0.00 | 15 | 1006.9 |
| 20260508210235 | 88 | 270 | 0.0 | 3.5 | 0.00 | 0.00 | 0.00 | 14 | 1006.9 |
| 20260508205732 | 87 | 168 | 1.7 | 5.2 | 0.00 | 0.00 | 0.00 | 15 | 1007.3 |
| 20260508205228 | 87 | 278 | 0.0 | 7.8 | 0.00 | 0.00 | 0.00 | 15 | 1007.1 |
| 20260508204725 | 89 | 241 | 2.6 | 2.6 | 0.00 | 0.00 | 0.00 | 15 | 1007.3 |
| 20260508204221 | 87 | 23 | 0.9 | 2.6 | 0.00 | 0.00 | 0.00 | 16 | 1007.3 |
| 20260508203717 | 85 | 225 | 4.3 | 5.2 | 0.00 | 0.00 | 0.00 | 17 | 1007.4 |
| 20260508203213 | 86 | 135 | 1.7 | 6.1 | 0.00 | 0.00 | 0.00 | 17 | 1007.5 |
| 20260508202710 | 87 | 168 | 1.7 | 4.3 | 0.00 | 0.00 | 0.00 | 17 | 1007.6 |
| 20260508202207 | 86 | 98 | 4.3 | 5.2 | 0.00 | 0.00 | 0.00 | 17 | 1007.7 |
| 20260508201704 | 86 | 130 | 3.5 | 7.8 | 0.00 | 0.00 | 0.00 | 18 | 1007.7 |
| 20260508201200 | 87 | 173 | 4.3 | 9.6 | 0.00 | 0.00 | 0.00 | 17 | 1007.9 |
| 20260508200657 | 87 | 240 | 2.6 | 4.3 | 0.00 | 0.00 | 0.00 | 18 | 1008.0 |
| 20260508200153 | 87 | 270 | 0.0 | 4.3 | 0.00 | 0.00 | 0.00 | 19 | 1007.9 |
| 20260508195650 | 87 | 150 | 1.7 | 5.2 | 0.00 | 0.00 | 0.00 | 19 | 1008.2 |
| 20260508195147 | 86 | 117 | 0.0 | 5.2 | 0.00 | 0.00 | 0.00 | 20 | 1008.0 |
| 20260508194643 | 86 | 297 | 4.3 | 4.3 | 0.00 | 0.00 | 0.00 | 22 | 1008.2 |
| 20260508194140 | 86 | 8 | 1.7 | 4.3 | 0.00 | 0.00 | 0.00 | 23 | 1008.2 |
| 20260508193637 | 84 | 191 | 2.6 | 6.1 | 0.00 | 0.00 | 0.00 | 23 | 1008.4 |
| 20260508193134 | 86 | 165 | 3.5 | 6.1 | 0.00 | 0.00 | 0.00 | 22 | 1008.5 |
| 20260508192630 | 84 | 49 | 1.7 | 5.2 | 0.00 | 0.00 | 0.00 | 23 | 1008.4 |
| 20260508192128 | 84 | 283 | 0.9 | 3.5 | 0.00 | 0.00 | 0.00 | 23 | 1008.7 |
| 20260508191624 | 84 | 75 | 0.9 | 3.5 | 0.00 | 0.00 | 0.00 | 24 | 1008.7 |
| 20260508191121 | 84 | 210 | 1.7 | 3.5 | 0.00 | 0.00 | 0.00 | 26 | 1008.6 |
| 20260508190619 | 84 | 166 | 4.3 | 5.2 | 0.00 | 0.00 | 0.00 | 26 | 1008.6 |
| 20260508190115 | 83 | 106 | 4.3 | 4.3 | 0.00 | 0.00 | 0.00 | 26 | 1008.8 |
| 20260508185612 | 84 | 185 | 2.6 | 4.3 | 0.00 | 0.00 | 0.00 | 26 | 1008.9 |
| 20260508185109 | 82 | 151 | 0.0 | 4.3 | 0.00 | 0.00 | 0.00 | 26 | 1008.9 |
| 20260508184606 | 81 | 156 | 5.2 | 6.1 | 0.00 | 0.00 | 0.00 | 27 | 1008.9 |
| 20260508184103 | 83 | 204 | 1.7 | 3.5 | 0.00 | 0.00 | 0.00 | 26 | 1009.1 |
| 20260508183600 | 82 | 0 | 3.5 | 3.5 | 0.00 | 0.00 | 0.00 | 27 | 1009.2 |
| 20260508183056 | 81 | 320 | 0.0 | 2.6 | 0.00 | 0.00 | 0.00 | 27 | 1009.2 |
| 20260508182552 | 81 | 189 | 2.6 | 4.3 | 0.00 | 0.00 | 0.00 | 28 | 1009.5 |
| 20260508182049 | 82 | 229 | 2.6 | 4.3 | 0.00 | 0.00 | 0.00 | 29 | 1009.5 |
| 20260508181544 | 81 | 235 | 3.5 | 4.3 | 0.00 | 0.00 | 0.00 | 30 | 1009.5 |
| 20260508181042 | 82 | 170 | 2.6 | 2.6 | 0.00 | 0.00 | 0.00 | 28 | 1009.9 |
| 20260508180538 | 80 | 41 | 3.5 | 3.5 | 0.00 | 0.00 | 0.00 | 31 | 1009.9 |
| 20260508180035 | 79 | 356 | 1.7 | 3.5 | 0.00 | 0.00 | 0.00 | 31 | 1009.9 |
| 20260508175531 | 80 | 297 | 2.6 | 4.3 | 0.00 | 0.00 | 0.00 | 32 | 1010.0 |
| 20260508175029 | 79 | 287 | 5.2 | 5.2 | 0.00 | 0.00 | 0.00 | 32 | 1010.2 |
| 20260508174526 | 80 | 254 | 1.7 | 2.6 | 0.00 | 0.00 | 0.00 | 33 | 1010.0 |
| 20260508174023 | 78 | 95 | 0.0 | 4.3 | 0.00 | 0.00 | 0.00 | 35 | 1010.1 |
| 20260508173520 | 78 | 212 | 1.7 | 3.5 | 0.00 | 0.00 | 0.00 | 36 | 1010.1 |
| 20260508173016 | 77 | 270 | 0.0 | 5.2 | 0.00 | 0.00 | 0.00 | 37 | 1010.1 |
| 20260508172513 | 77 | 353 | 0.0 | 3.5 | 0.00 | 0.00 | 0.00 | 36 | 1010.3 |
| 20260508172009 | 77 | 77 | 1.7 | 3.5 | 0.00 | 0.00 | 0.00 | 37 | 1010.6 |
| 20260508171506 | 78 | 135 | 0.0 | 2.6 | 0.00 | 0.00 | 0.00 | 37 | 1010.7 |
| 20260508171003 | 77 | 180 | 0.0 | 3.5 | 0.00 | 0.00 | 0.00 | 36 | 1010.7 |
| 20260508170500 | 75 | 168 | 1.7 | 4.3 | 0.00 | 0.00 | 0.00 | 33 | 1010.7 |
| 20260508165957 | 76 | 68 | 1.7 | 2.6 | 0.00 | 0.00 | 0.00 | 41 | 1010.6 |
| 20260508165455 | 76 | 250 | 2.6 | 4.3 | 0.00 | 0.00 | 0.00 | 43 | 1010.7 |
| 20260508164950 | 76 | 19 | 0.0 | 2.6 | 0.00 | 0.00 | 0.00 | 45 | 1010.6 |
| 20260508164448 | 75 | 108 | 1.7 | 2.6 | 0.00 | 0.00 | 0.00 | 45 | 1010.8 |
| 20260508163944 | 74 | 123 | 1.7 | 3.5 | 0.00 | 0.00 | 0.00 | 47 | 1010.7 |
| 20260508163442 | 74 | 225 | 1.7 | 4.3 | 0.00 | 0.00 | 0.00 | 48 | 1011.0 |
| 20260508162938 | 73 | 176 | 1.7 | 5.2 | 0.00 | 0.00 | 0.00 | 50 | 1010.9 |
| 20260508162436 | 72 | 148 | 1.7 | 6.1 | 0.00 | 0.00 | 0.00 | 50 | 1010.8 |
| 20260508161932 | 71 | 231 | 1.7 | 4.3 | 0.00 | 0.00 | 0.00 | 51 | 1011.0 |
| 20260508161429 | 71 | 163 | 4.3 | 5.2 | 0.00 | 0.00 | 0.00 | 53 | 1010.9 |
| 20260508160927 | 71 | 225 | 2.6 | 5.2 | 0.00 | 0.00 | 0.00 | 52 | 1011.0 |
| 20260508160426 | 70 | 203 | 0.9 | 7.8 | 0.00 | 0.00 | 0.00 | 52 | 1011.2 |
| 20260508155921 | 71 | 164 | 3.5 | 5.2 | 0.00 | 0.00 | 0.00 | 54 | 1010.9 |
| 20260508155418 | 69 | 225 | 1.7 | 6.1 | 0.00 | 0.00 | 0.00 | 56 | 1011.1 |
| 20260508154915 | 69 | 164 | 3.5 | 7.0 | 0.00 | 0.00 | 0.00 | 56 | 1011.1 |
| 20260508154413 | 70 | 158 | 2.6 | 4.3 | 0.00 | 0.00 | 0.00 | 57 | 1011.0 |
| 20260508153909 | 68 | 164 | 2.6 | 7.0 | 0.00 | 0.00 | 0.00 | 58 | 1011.2 |
| 20260508153406 | 67 | 170 | 2.6 | 6.1 | 0.00 | 0.00 | 0.00 | 59 | 1011.1 |
| 20260508152902 | 68 | 158 | 3.5 | 6.1 | 0.00 | 0.00 | 0.00 | 59 | 1011.3 |
| 20260508152359 | 67 | 157 | 3.5 | 7.0 | 0.00 | 0.00 | 0.00 | 59 | 1011.4 |
| 20260508151855 | 67 | 156 | 4.3 | 7.8 | 0.00 | 0.00 | 0.00 | 59 | 1011.3 |
| 20260508151353 | 66 | 255 | 1.7 | 4.3 | 0.00 | 0.00 | 0.00 | 62 | 1011.4 |
| 20260508150849 | 65 | 238 | 5.2 | 10.4 | 0.00 | 0.00 | 0.00 | 63 | 1011.3 |
| 20260508150346 | 65 | 130 | 2.6 | 7.0 | 0.00 | 0.00 | 0.00 | 64 | 1011.4 |
| 20260508145842 | 64 | 160 | 7.0 | 8.7 | 0.00 | 0.00 | 0.00 | 64 | 1011.4 |
| 20260508145338 | 65 | 185 | 3.5 | 3.5 | 0.00 | 0.00 | 0.00 | 65 | 1011.4 |
| 20260508144835 | 63 | 167 | 0.0 | 4.3 | 0.00 | 0.00 | 0.00 | 67 | 1011.4 |
| 20260508144333 | 63 | 167 | 2.6 | 5.2 | 0.00 | 0.00 | 0.00 | 68 | 1011.3 |
| 20260508143830 | 63 | 180 | 1.7 | 6.1 | 0.00 | 0.00 | 0.00 | 67 | 1011.6 |
| 20260508143327 | 62 | 215 | 0.9 | 6.1 | 0.00 | 0.00 | 0.00 | 68 | 1011.6 |
| 20260508142824 | 62 | 161 | 3.5 | 6.1 | 0.00 | 0.00 | 0.00 | 69 | 1011.6 |
| 20260508142321 | 62 | 180 | 2.6 | 6.1 | 0.00 | 0.00 | 0.00 | 70 | 1011.6 |
| 20260508141817 | 61 | 153 | 3.5 | 6.1 | 0.00 | 0.00 | 0.00 | 71 | 1011.8 |
| 20260508141314 | 61 | 199 | 2.6 | 7.8 | 0.00 | 0.00 | 0.00 | 71 | 1011.5 |
| 20260508140811 | 61 | 165 | 7.8 | 10.4 | 0.00 | 0.00 | 0.00 | 71 | 1011.3 |
| 20260508140308 | 61 | 150 | 4.3 | 5.2 | 0.00 | 0.00 | 0.00 | 72 | 1011.4 |
| 20260508135804 | 60 | 159 | 6.1 | 7.8 | 0.00 | 0.00 | 0.00 | 74 | 1011.3 |
| 20260508135300 | 60 | 176 | 7.0 | 7.0 | 0.00 | 0.00 | 0.00 | 74 | 1011.3 |
| 20260508134756 | 59 | 166 | 5.2 | 6.1 | 0.00 | 0.00 | 0.00 | 75 | 1011.4 |
| 20260508134254 | 59 | 183 | 1.7 | 5.2 | 0.00 | 0.00 | 0.00 | 76 | 1011.3 |
| 20260508133750 | 58 | 146 | 2.6 | 3.5 | 0.00 | 0.00 | 0.00 | 78 | 1011.4 |
| 20260508133248 | 57 | 178 | 2.6 | 3.5 | 0.00 | 0.00 | 0.00 | 79 | 1011.3 |
| 20260508132745 | 56 | 186 | 2.6 | 3.5 | 0.00 | 0.00 | 0.00 | 79 | 1011.2 |
| 20260508132243 | 56 | 172 | 1.7 | 3.5 | 0.00 | 0.00 | 0.00 | 79 | 1011.3 |
| 20260508131738 | 56 | 201 | 1.7 | 1.7 | 0.00 | 0.00 | 0.00 | 80 | 1011.3 |
| 20260508131235 | 56 | 103 | 0.9 | 2.6 | 0.00 | 0.00 | 0.00 | 83 | 1011.4 |
| 20260508130731 | 54 | 81 | 0.0 | 1.7 | 0.00 | 0.00 | 0.00 | 84 | 1011.3 |
| 20260508130229 | 54 | 99 | 0.0 | 0.0 | 0.00 | 0.00 | 0.00 | 86 | 1011.1 |
| 20260508125724 | 52 | 23 | 0.9 | 1.7 | 0.00 | 0.00 | 0.00 | 86 | 1011.1 |
| 20260508125221 | 51 | 41 | 0.0 | 1.7 | 0.00 | 0.00 | 0.00 | 86 | 1011.0 |
| 20260508124719 | 50 | 35 | 0.0 | 0.0 | 0.00 | 0.00 | 0.00 | 87 | 1010.9 |
| 20260508124216 | 49 | 35 | 0.0 | 0.0 | 0.00 | 0.00 | 0.00 | 87 | 1011.0 |
| 20260508123714 | 48 | 17 | 2.6 | 2.6 | 0.00 | 0.00 | 0.00 | 87 | 1010.9 |
| 20260508123212 | 49 | 12 | 0.9 | 0.9 | 0.00 | 0.00 | 0.00 | 87 | 1011.0 |
| 20260508122708 | 49 | 0 | 0.9 | 0.9 | 0.00 | 0.00 | 0.00 | 87 | 1010.9 |
| 20260508122205 | 48 | 186 | 0.0 | 0.9 | 0.00 | 0.00 | 0.00 | 88 | 1011.0 |
| 20260508121702 | 49 | 196 | 0.0 | 1.7 | 0.00 | 0.00 | 0.00 | 88 | 1011.0 |
| 20260508121201 | 49 | 173 | 0.0 | 0.9 | 0.00 | 0.00 | 0.00 | 88 | 1011.1 |
| 20260508120658 | 49 | 188 | 0.0 | 2.6 | 0.00 | 0.00 | 0.00 | 88 | 1011.1 |
| 20260508120156 | 49 | 168 | 0.0 | 1.7 | 0.00 | 0.00 | 0.00 | 88 | 1011.2 |
| 20260508115653 | 49 | 148 | 2.6 | 4.3 | 0.00 | 0.00 | 0.00 | 88 | 1011.2 |
| 20260508115150 | 50 | 164 | 4.3 | 4.3 | 0.00 | 0.00 | 0.00 | 88 | 1011.1 |
| 20260508114647 | 50 | 168 | 0.0 | 2.6 | 0.00 | 0.00 | 0.00 | 88 | 1011.0 |
| 20260508114143 | 50 | 154 | 0.9 | 1.7 | 0.00 | 0.00 | 0.00 | 88 | 1010.7 |
| 20260508113640 | 50 | 14 | 0.0 | 0.9 | 0.00 | 0.00 | 0.00 | 88 | 1010.7 |
| 20260508113138 | 50 | 106 | 0.0 | 0.0 | 0.00 | 0.00 | 0.00 | 88 | 1010.6 |
| 20260508112629 | 50 | 29 | 0.0 | 0.9 | 0.00 | 0.00 | 0.00 | 88 | 1010.8 |
| 20260508112126 | 50 | 63 | 0.9 | 1.7 | 0.00 | 0.00 | 0.00 | 87 | 1010.6 |
| 20260508111622 | 50 | 0 | 1.7 | 1.7 | 0.00 | 0.00 | 0.00 | 87 | 1010.4 |
| 20260508111120 | 51 | 5 | 1.7 | 2.6 | 0.00 | 0.00 | 0.00 | 87 | 1010.4 |
| 20260508110618 | 51 | 26 | 0.0 | 1.7 | 0.00 | 0.00 | 0.00 | 87 | 1010.6 |
| 20260508110113 | 50 | 21 | 1.7 | 1.7 | 0.00 | 0.00 | 0.00 | 87 | 1010.7 |
| 20260508105608 | 50 | 8 | 0.0 | 0.0 | 0.00 | 0.00 | 0.00 | 87 | 1010.8 |
| 20260508105105 | 50 | 8 | 0.0 | 0.0 | 0.00 | 0.00 | 0.00 | 86 | 1010.6 |
| 20260508104603 | 51 | 4 | 0.0 | 1.7 | 0.00 | 0.00 | 0.00 | 86 | 1010.3 |
| 20260508104059 | 51 | 23 | 0.0 | 0.0 | 0.00 | 0.00 | 0.00 | 86 | 1010.4 |
| 20260508103557 | 51 | 23 | 0.0 | 0.9 | 0.00 | 0.00 | 0.00 | 86 | 1010.4 |
| 20260508103054 | 51 | 14 | 0.0 | 0.0 | 0.00 | 0.00 | 0.00 | 85 | 1010.7 |
| 20260508102551 | 51 | 8 | 0.0 | 0.0 | 0.00 | 0.00 | 0.00 | 85 | 1010.2 |
| 20260508102049 | 51 | 8 | 0.0 | 1.7 | 0.00 | 0.00 | 0.00 | 84 | 1010.8 |
| 20260508101546 | 52 | 63 | 0.0 | 0.9 | 0.00 | 0.00 | 0.00 | 84 | 1010.6 |
| 20260508101043 | 52 | 277 | 0.0 | 0.0 | 0.00 | 0.00 | 0.00 | 84 | 1010.7 |
| 20260508100541 | 52 | 277 | 0.0 | 0.0 | 0.00 | 0.00 | 0.00 | 83 | 1010.4 |
| 20260508100038 | 52 | 99 | 0.0 | 0.9 | 0.00 | 0.00 | 0.00 | 83 | 1010.4 |
| 20260508095535 | 52 | 90 | 0.0 | 0.0 | 0.00 | 0.00 | 0.00 | 83 | 1010.7 |
| 20260508095032 | 52 | 90 | 0.0 | 0.9 | 0.00 | 0.00 | 0.00 | 83 | 1010.8 |
| 20260508094529 | 53 | 345 | 0.0 | 0.9 | 0.00 | 0.00 | 0.00 | 82 | 1010.8 |
| 20260508094026 | 53 | 169 | 0.9 | 0.9 | 0.00 | 0.00 | 0.00 | 82 | 1010.3 |
| 20260508093523 | 53 | 105 | 0.0 | 1.7 | 0.00 | 0.00 | 0.00 | 82 | 1010.7 |
| 20260508093021 | 53 | 287 | 0.0 | 1.7 | 0.00 | 0.00 | 0.00 | 81 | 1010.8 |
| 20260508092518 | 53 | 132 | 1.7 | 1.7 | 0.00 | 0.00 | 0.00 | 81 | 1010.8 |
| 20260508092017 | 53 | 148 | 0.0 | 2.6 | 0.00 | 0.00 | 0.00 | 81 | 1010.8 |
| 20260508091513 | 54 | 139 | 1.7 | 3.5 | 0.00 | 0.00 | 0.00 | 81 | 1010.6 |
| 20260508091010 | 53 | 41 | 0.0 | 1.7 | 0.00 | 0.00 | 0.00 | 80 | 1010.7 |
| 20260508090508 | 54 | 105 | 0.0 | 1.7 | 0.00 | 0.00 | 0.00 | 80 | 1010.7 |
| 20260508090005 | 54 | 117 | 0.0 | 1.7 | 0.00 | 0.00 | 0.00 | 80 | 1010.9 |
| 20260508085501 | 54 | 111 | 0.0 | 1.7 | 0.00 | 0.00 | 0.00 | 79 | 1010.9 |
| 20260508084958 | 55 | 90 | 0.9 | 2.6 | 0.00 | 0.00 | 0.00 | 78 | 1010.4 |
| 20260508084454 | 55 | 151 | 1.7 | 2.6 | 0.00 | 0.00 | 0.00 | 78 | 1010.7 |
| 20260508083952 | 56 | 124 | 0.0 | 1.7 | 0.00 | 0.00 | 0.00 | 77 | 1010.9 |
| 20260508083449 | 56 | 246 | 0.0 | 2.6 | 0.00 | 0.00 | 0.00 | 77 | 1011.1 |
| 20260508082944 | 56 | 154 | 0.0 | 2.6 | 0.00 | 0.00 | 0.00 | 76 | 1010.9 |
| 20260508082442 | 57 | 123 | 0.0 | 2.6 | 0.00 | 0.00 | 0.00 | 76 | 1010.9 |
| 20260508081939 | 57 | 139 | 1.7 | 2.6 | 0.00 | 0.00 | 0.00 | 75 | 1011.1 |
| 20260508081436 | 57 | 174 | 0.9 | 2.6 | 0.00 | 0.00 | 0.00 | 75 | 1011.1 |
| 20260508080932 | 57 | 180 | 0.9 | 1.7 | 0.00 | 0.00 | 0.00 | 75 | 1011.1 |
| 20260508080430 | 57 | 131 | 1.7 | 2.6 | 0.00 | 0.00 | 0.00 | 74 | 1011.0 |
| 20260508075927 | 58 | 107 | 3.5 | 3.5 | 0.00 | 0.00 | 0.00 | 73 | 1011.1 |
| 20260508075424 | 58 | 112 | 1.7 | 3.5 | 0.00 | 0.00 | 0.00 | 73 | 1011.0 |
| 20260508074922 | 58 | 110 | 1.7 | 2.6 | 0.00 | 0.00 | 0.00 | 72 | 1011.0 |
| 20260508074419 | 59 | 117 | 2.6 | 4.3 | 0.00 | 0.00 | 0.00 | 71 | 1011.1 |
| 20260508073915 | 59 | 150 | 4.3 | 7.0 | 0.00 | 0.00 | 0.00 | 70 | 1011.0 |
| 20260508073413 | 60 | 159 | 3.5 | 8.7 | 0.00 | 0.00 | 0.00 | 70 | 1011.0 |
| 20260508072910 | 60 | 173 | 4.3 | 6.1 | 0.00 | 0.00 | 0.00 | 69 | 1011.4 |
| 20260508072406 | 60 | 179 | 3.5 | 6.1 | 0.00 | 0.00 | 0.00 | 69 | 1011.3 |
| 20260508071904 | 60 | 157 | 3.5 | 5.2 | 0.00 | 0.00 | 0.00 | 69 | 1011.5 |
| 20260508071402 | 60 | 164 | 4.3 | 5.2 | 0.00 | 0.00 | 0.00 | 68 | 1011.3 |
| 20260508070859 | 60 | 180 | 2.6 | 5.2 | 0.00 | 0.00 | 0.00 | 68 | 1011.3 |
| 20260508070357 | 61 | 175 | 0.9 | 5.2 | 0.00 | 0.00 | 0.00 | 67 | 1011.6 |
| 20260508065854 | 61 | 180 | 3.5 | 4.3 | 0.00 | 0.00 | 0.00 | 66 | 1011.6 |
| 20260508065352 | 61 | 148 | 2.6 | 7.0 | 0.00 | 0.00 | 0.00 | 66 | 1011.6 |
| 20260508064850 | 61 | 166 | 3.5 | 6.1 | 0.00 | 0.00 | 0.00 | 66 | 1011.5 |
| 20260508064347 | 62 | 180 | 4.3 | 7.8 | 0.00 | 0.00 | 0.00 | 65 | 1011.5 |
| 20260508063845 | 62 | 145 | 5.2 | 9.6 | 0.00 | 0.00 | 0.00 | 65 | 1011.6 |
| 20260508063343 | 62 | 170 | 2.6 | 8.7 | 0.00 | 0.00 | 0.00 | 64 | 1011.8 |
| 20260508062839 | 62 | 152 | 5.2 | 7.8 | 0.00 | 0.00 | 0.00 | 64 | 1011.4 |
| 20260508062337 | 63 | 183 | 4.3 | 11.3 | 0.00 | 0.00 | 0.00 | 63 | 1011.5 |
| 20260508061834 | 63 | 155 | 4.3 | 8.7 | 0.00 | 0.00 | 0.00 | 63 | 1011.3 |
| 20260508061332 | 63 | 191 | 5.2 | 7.8 | 0.00 | 0.00 | 0.00 | 62 | 1011.5 |
| 20260508060828 | 63 | 162 | 6.1 | 10.4 | 0.00 | 0.00 | 0.00 | 62 | 1011.5 |
| 20260508060326 | 63 | 156 | 7.0 | 10.4 | 0.00 | 0.00 | 0.00 | 61 | 1011.2 |
| 20260508055820 | 63 | 192 | 4.3 | 12.2 | 0.00 | 0.00 | 0.00 | 60 | 1011.3 |
| 20260508055318 | 64 | 194 | 3.5 | 10.4 | 0.00 | 0.00 | 0.00 | 60 | 1011.3 |
| 20260508054815 | 64 | 175 | 7.0 | 10.4 | 0.00 | 0.00 | 0.00 | 59 | 1011.3 |
| 20260508054312 | 64 | 155 | 11.3 | 11.3 | 0.00 | 0.00 | 0.00 | 59 | 1011.1 |
| 20260508053809 | 64 | 116 | 5.2 | 9.6 | 0.00 | 0.00 | 0.00 | 59 | 1011.3 |
| 20260508053306 | 64 | 159 | 4.3 | 9.6 | 0.00 | 0.00 | 0.00 | 59 | 1011.3 |
| 20260508052804 | 64 | 185 | 2.6 | 9.6 | 0.00 | 0.00 | 0.00 | 59 | 1011.2 |
| 20260508052301 | 64 | 187 | 2.6 | 9.6 | 0.00 | 0.00 | 0.00 | 58 | 1011.2 |
| 20260508051757 | 64 | 155 | 4.3 | 9.6 | 0.00 | 0.00 | 0.00 | 57 | 1011.2 |
| 20260508051252 | 65 | 159 | 7.0 | 12.2 | 0.00 | 0.00 | 0.00 | 57 | 1011.3 |
| 20260508050749 | 65 | 180 | 5.2 | 10.4 | 0.00 | 0.00 | 0.00 | 56 | 1011.3 |
| 20260508050246 | 65 | 179 | 4.3 | 13.9 | 0.00 | 0.00 | 0.00 | 56 | 1011.3 |
| 20260508045742 | 65 | 192 | 6.1 | 9.6 | 0.00 | 0.00 | 0.00 | 56 | 1011.4 |
| 20260508045240 | 66 | 192 | 6.1 | 11.3 | 0.00 | 0.00 | 0.00 | 56 | 1011.4 |
| 20260508044737 | 65 | 196 | 9.6 | 10.4 | 0.00 | 0.00 | 0.00 | 56 | 1011.6 |
| 20260508044234 | 65 | 179 | 3.5 | 9.6 | 0.00 | 0.00 | 0.00 | 55 | 1011.3 |
| 20260508043730 | 65 | 168 | 1.7 | 7.8 | 0.00 | 0.00 | 0.00 | 55 | 1011.6 |
| 20260508043227 | 65 | 198 | 2.6 | 9.6 | 0.00 | 0.00 | 0.00 | 55 | 1011.5 |
| 20260508042724 | 65 | 154 | 7.0 | 11.3 | 0.00 | 0.00 | 0.00 | 54 | 1011.8 |
| 20260508042221 | 65 | 177 | 4.3 | 7.8 | 0.00 | 0.00 | 0.00 | 55 | 1011.3 |
| 20260508041718 | 64 | 171 | 4.3 | 6.1 | 0.00 | 0.00 | 0.00 | 54 | 1011.8 |
| 20260508041215 | 64 | 117 | 3.5 | 6.1 | 0.00 | 0.00 | 0.00 | 54 | 1011.5 |
| 20260508040711 | 64 | 178 | 2.6 | 3.5 | 0.00 | 0.00 | 0.00 | 54 | 1011.6 |
| 20260508040208 | 65 | 155 | 2.6 | 2.6 | 0.00 | 0.00 | 0.00 | 53 | 1011.3 |
| 20260508035706 | 65 | 166 | 1.7 | 2.6 | 0.00 | 0.00 | 0.00 | 53 | 1011.6 |
| 20260508035203 | 66 | 156 | 1.7 | 3.5 | 0.00 | 0.00 | 0.00 | 52 | 1011.6 |
| 20260508034659 | 65 | 180 | 1.7 | 3.5 | 0.00 | 0.00 | 0.00 | 52 | 1011.5 |
| 20260508034156 | 65 | 186 | 0.9 | 1.7 | 0.00 | 0.00 | 0.00 | 53 | 1011.8 |
| 20260508033653 | 65 | 169 | 1.7 | 2.6 | 0.00 | 0.00 | 0.00 | 53 | 1011.3 |
| 20260508033152 | 65 | 165 | 0.9 | 1.7 | 0.00 | 0.00 | 0.00 | 52 | 1011.4 |
| 20260508032649 | 65 | 132 | 0.0 | 1.7 | 0.00 | 0.00 | 0.00 | 52 | 1011.3 |
| 20260508032146 | 66 | 236 | 1.7 | 2.6 | 0.00 | 0.00 | 0.00 | 51 | 1011.2 |
| 20260508031643 | 66 | 206 | 1.7 | 3.5 | 0.00 | 0.00 | 0.00 | 51 | 1011.2 |
| 20260508031139 | 66 | 151 | 2.6 | 3.5 | 0.00 | 0.00 | 0.00 | 51 | 1011.2 |
| 20260508030635 | 66 | 153 | 2.6 | 4.3 | 0.00 | 0.00 | 0.00 | 51 | 1011.0 |
| 20260508030133 | 66 | 183 | 2.6 | 4.3 | 0.00 | 0.00 | 0.00 | 51 | 1011.0 |
| 20260508025629 | 66 | 152 | 2.6 | 4.3 | 0.00 | 0.00 | 0.00 | 50 | 1010.9 |
| 20260508025127 | 66 | 151 | 2.6 | 3.5 | 0.00 | 0.00 | 0.00 | 50 | 1010.9 |
| 20260508024622 | 66 | 156 | 1.7 | 4.3 | 0.00 | 0.00 | 0.00 | 50 | 1011.1 |
| 20260508024120 | 67 | 159 | 2.6 | 3.5 | 0.00 | 0.00 | 0.00 | 49 | 1011.0 |
| 20260508023616 | 67 | 148 | 0.0 | 2.6 | 0.00 | 0.00 | 0.00 | 50 | 1010.9 |
| 20260508023114 | 67 | 104 | 2.6 | 2.6 | 0.00 | 0.00 | 0.00 | 49 | 1010.8 |
| 20260508022609 | 67 | 144 | 0.0 | 2.6 | 0.00 | 0.00 | 0.00 | 48 | 1010.6 |
| 20260508022107 | 68 | 157 | 0.9 | 2.6 | 0.00 | 0.00 | 0.00 | 47 | 1010.8 |
| 20260508021602 | 68 | 152 | 1.7 | 2.6 | 0.00 | 0.00 | 0.00 | 47 | 1010.9 |
| 20260508021058 | 69 | 135 | 1.7 | 3.5 | 0.00 | 0.00 | 0.00 | 46 | 1010.4 |
| 20260508020556 | 69 | 157 | 4.3 | 6.1 | 0.00 | 0.00 | 0.00 | 45 | 1010.6 |
| 20260508020054 | 70 | 180 | 2.6 | 7.0 | 0.00 | 0.00 | 0.00 | 44 | 1010.4 |
| 20260508015551 | 70 | 163 | 5.2 | 8.7 | 0.00 | 0.00 | 0.00 | 43 | 1010.6 |
| 20260508015048 | 70 | 147 | 3.5 | 9.6 | 0.00 | 0.00 | 0.00 | 42 | 1010.1 |
| 20260508014544 | 71 | 172 | 6.1 | 8.7 | 0.00 | 0.00 | 0.00 | 42 | 1010.2 |
| 20260508014040 | 71 | 155 | 4.3 | 11.3 | 0.00 | 0.00 | 0.00 | 42 | 1010.1 |
| 20260508013536 | 71 | 161 | 7.8 | 11.3 | 0.00 | 0.00 | 0.00 | 41 | 1010.1 |
| 20260508013034 | 71 | 151 | 5.2 | 13.0 | 0.00 | 0.00 | 0.00 | 41 | 1010.2 |
| 20260508012531 | 72 | 154 | 7.0 | 13.0 | 0.00 | 0.00 | 0.00 | 41 | 1010.0 |
| 20260508012028 | 72 | 156 | 7.8 | 13.0 | 0.00 | 0.00 | 0.00 | 40 | 1010.2 |
| 20260508011527 | 72 | 164 | 6.1 | 11.3 | 0.00 | 0.00 | 0.00 | 40 | 1010.1 |
| 20260508011023 | 73 | 172 | 9.6 | 13.0 | 0.00 | 0.00 | 0.00 | 40 | 1010.2 |
| 20260508010520 | 73 | 161 | 10.4 | 11.3 | 0.00 | 0.00 | 0.00 | 39 | 1010.1 |
| 20260508010018 | 73 | 179 | 6.1 | 11.3 | 0.00 | 0.00 | 0.00 | 38 | 1010.3 |
| 20260508005514 | 73 | 181 | 7.8 | 10.4 | 0.00 | 0.00 | 0.00 | 38 | 1010.2 |
| 20260508005011 | 74 | 183 | 6.1 | 11.3 | 0.00 | 0.00 | 0.00 | 38 | 1010.2 |
| 20260508004507 | 74 | 183 | 4.3 | 8.7 | 0.00 | 0.00 | 0.00 | 37 | 1010.3 |
| 20260508004004 | 75 | 190 | 2.6 | 8.7 | 0.00 | 0.00 | 0.00 | 37 | 1010.3 |
| 20260508003500 | 75 | 200 | 2.6 | 14.8 | 0.00 | 0.00 | 0.00 | 36 | 1010.2 |
| 20260508002958 | 75 | 178 | 7.8 | 9.6 | 0.00 | 0.00 | 0.00 | 36 | 1010.4 |
| 20260508002454 | 75 | 166 | 7.0 | 9.6 | 0.00 | 0.00 | 0.00 | 35 | 1010.2 |
| 20260508001950 | 75 | 178 | 7.0 | 9.6 | 0.00 | 0.00 | 0.00 | 36 | 1010.3 |
| 20260508001446 | 75 | 162 | 6.1 | 9.6 | 0.00 | 0.00 | 0.00 | 36 | 1010.2 |
| 20260508000943 | 76 | 179 | 4.3 | 9.6 | 0.00 | 0.00 | 0.00 | 35 | 1010.6 |
| 20260508000439 | 76 | 168 | 0.9 | 9.6 | 0.00 | 0.00 | 0.00 | 35 | 1010.3 |
| 20260507235936 | 76 | 226 | 0.0 | 8.7 | 0.00 | 0.00 | 0.00 | 35 | 1010.7 |
| 20260507235433 | 76 | 154 | 1.7 | 6.1 | 0.00 | 0.00 | 0.00 | 34 | 1010.3 |
| 20260507234931 | 76 | 166 | 6.1 | 9.6 | 0.00 | 0.00 | 0.00 | 34 | 1010.4 |
| 20260507234427 | 76 | 179 | 5.2 | 7.8 | 0.00 | 0.00 | 0.00 | 34 | 1010.3 |
| 20260507233923 | 76 | 147 | 2.6 | 12.2 | 0.00 | 0.00 | 0.00 | 34 | 1010.6 |
| 20260507233420 | 76 | 166 | 5.2 | 9.6 | 0.00 | 0.00 | 0.00 | 34 | 1010.4 |
| 20260507232919 | 76 | 175 | 6.1 | 9.6 | 0.00 | 0.00 | 0.00 | 34 | 1010.6 |
| 20260507232415 | 75 | 171 | 8.7 | 9.6 | 0.00 | 0.00 | 0.00 | 33 | 1010.4 |
| 20260507231912 | 76 | 159 | 4.3 | 7.8 | 0.00 | 0.00 | 0.00 | 34 | 1010.6 |
| 20260507231409 | 76 | 169 | 5.2 | 6.1 | 0.00 | 0.00 | 0.00 | 34 | 1010.6 |
| 20260507230905 | 75 | 155 | 2.6 | 8.7 | 0.00 | 0.00 | 0.00 | 35 | 1010.6 |
| 20260507230403 | 75 | 181 | 5.2 | 9.6 | 0.00 | 0.00 | 0.00 | 34 | 1010.9 |
| 20260507225902 | 75 | 195 | 4.3 | 10.4 | 0.00 | 0.00 | 0.00 | 34 | 1010.8 |
| 20260507225359 | 75 | 181 | 4.3 | 6.1 | 0.00 | 0.00 | 0.00 | 34 | 1010.8 |
| 20260507224855 | 75 | 158 | 5.2 | 13.0 | 0.00 | 0.00 | 0.00 | 33 | 1010.9 |